Flag for Canada Weather past 2 weeks in Brantford, Ontario, Canada

Now
63 °F

Passing clouds.


Feels Like: 63 °F
Forecast: 60 / 85 °F
Wind: 3 mph from West

Location: Hamilton Airport

Current Time: Jul 22, 2014 at 7:34:28 AM

Latest Report: Jul 22, 2014 at 7:00 AM


Visibility: 15 mi

Pressure: 30.12 "Hg

Humidity: 94%

Dew point: 61 °F

Location of BrantfordLocation

Historic Weather in Brantford — Graph

°F

Brantford temperature yesterday

Maximum temperature yesterday: 82 °F (at 4:00 PM)
Minimum temperature yesterday: 59 °F (at 6:00 AM)
Average temperature yesterday: 70 °F

Past Weeks' High & Low Weather Summary

 TemperatureHumidityPressure
High82 °F (Jul 21, 4:00 PM)100% (Jul 8, 3:00 AM)30.25 "Hg (Jul 8, 3:00 AM)
Low48 °F (Jul 17, 5:00 AM)38% (Jul 17, 4:00 PM)29.52 "Hg (Jul 8, 4:00 PM)
Average66 °F78%29.97 "Hg
* Reported Jul 7 6:00 AM — Jul 22 6:00 AM, Brantford, Weather by CustomWeather, © 2014

Note: Actual official high and low records may vary slightly from our data, if they occured in-between our weather recording intervals... More about our weather records

Advertising

Brantford weather history for previous 24 hours

 ConditionsComfort  
Time TempWeatherWind HumidityBarometerVisibility
6:00 AM
Jul 22
61 °FPassing clouds.3 mph94%30.11 "Hg12 mi
5:00 AM63 °FPassing clouds.5 mph94%30.11 "Hg15 mi
4:00 AM63 °FPassing clouds.3 mph94%30.11 "Hg15 mi
3:00 AM63 °FPassing clouds.5 mph94%30.11 "Hg15 mi
2:00 AM63 °FPassing clouds.5 mph94%30.11 "Hg15 mi
1:00 AM64 °FPassing clouds.5 mph94%30.12 "Hg15 mi
12:00 AM66 °FPassing clouds.3 mph94%30.12 "Hg15 mi
11:00 PM
Jul 21
68 °FPassing clouds.3 mph88%30.12 "Hg15 mi
10:00 PM70 °FPassing clouds.5 mph83%30.13 "Hg15 mi
9:00 PM72 °FScattered clouds.5 mph83%30.11 "Hg15 mi
8:00 PM77 °FScattered clouds.7 mph57%30.11 "Hg15 mi
7:00 PM81 °FPassing clouds.5 mph45%30.11 "Hg15 mi
6:00 PM81 °FPassing clouds.5 mph48%30.11 "Hg15 mi
5:00 PM81 °FScattered clouds.7 mph42%30.11 "Hg15 mi
4:00 PM82 °FScattered clouds.5 mph45%30.12 "Hg15 mi
3:00 PM81 °FPassing clouds.8 mph42%30.13 "Hg15 mi
2:00 PM81 °FPassing clouds.8 mph48%30.13 "Hg15 mi
1:00 PM79 °FPassing clouds.3 mph58%30.14 "Hg15 mi
12:00 PM75 °FPassing clouds.2 mph65%30.14 "Hg15 mi
11:00 AM73 °FScattered clouds.5 mph78%30.14 "Hg10 mi
10:00 AM72 °FPassing clouds.5 mph83%30.13 "Hg10 mi
9:00 AM68 °FSunny.6 mph100%30.15 "Hg8 mi
8:00 AM64 °FFog.5 mph100%30.14 "Hg6 mi
7:00 AM59 °FPassing clouds.5 mph100%30.12 "Hg8 mi
Weather by CustomWeather, © 2014

See weather overviewHow to use our weather pages